CW0288 Weather Reports


time (UTC)temp
F
wind
direction
speed
knots
gust
knots
rain 1hr
in
rain 24hr
in
rain mn
in
humidity
%
barometer
mb
20260504050439 57 213 9.6 15.6 0.00 0.00 0.00 39 998.8
20260504045942 57 226 11.3 15.6 0.00 0.00 0.00 39 998.9
20260504045440 56 221 9.6 17.4 0.00 0.00 0.00 40 999.0
20260504044940 56 216 11.3 17.4 0.00 0.00 0.00 40 999.3
20260504044719 56 214 8.7 13.0 0.00 0.00 0.00 41 999.3
20260504043940 56 210 9.6 14.8 0.00 0.00 0.00 41 999.5
20260504043436 56 221 9.6 14.8 0.00 0.00 0.00 41 999.6
20260504042938 56 224 7.8 13.9 0.00 0.00 0.00 41 999.7
20260504042433 56 220 10.4 13.9 0.00 0.00 0.00 41 999.7
20260504041933 56 220 9.6 13.9 0.00 0.00 0.00 41 999.8
20260504041433 56 204 10.4 14.8 0.00 0.00 0.00 41 1000.0
20260504040932 56 224 8.7 14.8 0.00 0.00 0.00 41 1000.1
20260504040430 56 214 9.6 14.8 0.00 0.00 0.00 41 1000.3
20260504035930 56 227 9.6 14.8 0.00 0.00 0.00 41 1000.4
20260504035430 56 220 9.6 13.9 0.00 0.00 0.00 40 1000.5
20260504034931 56 228 10.4 13.9 0.00 0.00 0.00 39 1000.6
20260504034430 56 227 9.6 13.9 0.00 0.00 0.00 40 1000.8
20260504033930 56 204 9.6 13.9 0.00 0.00 0.00 39 1000.9
20260504033431 56 212 9.6 13.9 0.00 0.00 0.00 40 1001.0
20260504032930 56 210 10.4 13.9 0.00 0.00 0.00 39 1001.1
20260504032430 56 219 7.8 12.2 0.00 0.00 0.00 40 1001.2
20260504031930 56 219 7.8 12.2 0.00 0.00 0.00 40 1001.3
20260504031429 56 227 7.8 12.2 0.00 0.00 0.00 39 1001.5
20260504030929 57 212 8.7 11.3 0.00 0.00 0.00 39 1001.6
20260504030429 56 221 7.8 9.6 0.00 0.00 0.00 39 1001.7
20260504025928 57 212 7.0 11.3 0.00 0.00 0.00 39 1001.9
20260504025428 57 230 7.0 11.3 0.00 0.00 0.00 39 1002.0
20260504025208 56 210 7.8 10.4 0.00 0.00 0.00 39 1002.1
20260504024425 56 224 7.8 10.4 0.00 0.00 0.00 41 1002.2
20260504023924 56 210 7.8 10.4 0.00 0.00 0.00 41 1002.2
20260504023425 56 214 7.8 9.6 0.00 0.00 0.00 43 1002.3
20260504022920 56 221 7.0 9.6 0.00 0.00 0.00 41 1002.4
20260504022418 56 235 5.2 8.7 0.00 0.00 0.00 43 1002.5
20260504021919 56 226 5.2 8.7 0.00 0.00 0.00 40 1002.5
20260504021418 56 221 5.2 7.8 0.00 0.00 0.00 40 1002.6
20260504020915 56 231 4.3 8.7 0.00 0.00 0.00 40 1002.6
20260504020415 56 240 6.1 8.7 0.00 0.00 0.00 41 1002.7
20260504015915 56 231 5.2 7.8 0.00 0.00 0.00 38 1002.8
20260504015415 57 241 4.3 7.8 0.00 0.00 0.00 37 1002.8
20260504014915 57 240 5.2 7.8 0.00 0.00 0.00 37 1002.8
20260504014725 57 235 5.2 7.8 0.00 0.00 0.00 37 1002.8
20260504013415 58 235 5.2 6.1 0.00 0.00 0.00 36 1003.0
20260504012912 58 241 5.2 5.2 0.00 0.00 0.00 35 1003.0
20260504012412 59 245 4.3 5.2 0.00 0.00 0.00 36 1003.1
20260504011913 59 235 3.5 5.2 0.00 0.00 0.00 35 1003.1
20260504011411 60 244 3.5 6.1 0.00 0.00 0.00 35 1003.2
20260504010910 60 261 4.3 6.1 0.00 0.00 0.00 33 1003.2
20260504010411 61 255 4.3 7.8 0.00 0.00 0.00 32 1003.2
20260504005909 61 255 5.2 7.8 0.00 0.00 0.00 31 1003.4
20260504005409 61 266 4.3 8.7 0.00 0.00 0.00 32 1003.5
20260504004909 61 278 5.2 8.7 0.00 0.00 0.00 32 1003.5
20260504004410 62 285 6.1 8.7 0.00 0.00 0.00 31 1003.4
20260504003909 62 292 6.1 13.0 0.00 0.00 0.00 29 1003.4
20260504003410 63 268 7.8 15.6 0.00 0.00 0.00 30 1003.5
20260504002909 63 269 10.4 15.6 0.00 0.00 0.00 27 1003.5
20260504002409 63 268 10.4 15.6 0.00 0.00 0.00 27 1003.4
20260504002150 64 272 9.6 16.5 0.00 0.00 0.00 27 1003.5
20260504001409 64 285 12.2 16.5 0.00 0.00 0.00 26 1003.4
20260504001151 64 288 6.1 14.8 0.00 0.00 0.00 28 1003.6
20260504000409 64 289 8.7 13.0 0.00 0.00 0.00 28 1003.6
20260503235908 64 266 8.7 17.4 0.00 0.00 0.00 29 1003.7
20260503235409 65 278 7.8 17.4 0.00 0.00 0.00 27 1003.7
20260503234908 65 295 10.4 15.6 0.00 0.00 0.00 27 1003.7
20260503234409 65 279 9.6 13.9 0.00 0.00 0.00 26 1003.7
20260503233907 66 252 10.4 13.9 0.00 0.00 0.00 24 1003.8
20260503233408 66 271 9.6 13.0 0.00 0.00 0.00 23 1003.8
20260503232907 66 275 8.7 14.8 0.00 0.00 0.00 23 1003.8
20260503232406 66 282 9.6 15.6 0.00 0.00 0.00 23 1003.9
20260503231907 67 281 10.4 15.6 0.00 0.00 0.00 22 1004.0
20260503231404 66 283 8.7 13.9 0.00 0.00 0.00 27 1004.2
20260503230905 66 264 9.6 13.9 0.00 0.00 0.00 27 1004.2
20260503230643 65 305 9.6 14.8 0.00 0.00 0.00 26 1004.1
20260503225902 65 282 9.6 14.8 0.00 0.00 0.00 26 1004.1
20260503225401 66 281 9.6 13.9 0.00 0.00 0.00 23 1004.2
20260503224902 66 259 6.1 19.1 0.00 0.00 0.00 22 1004.1
20260503224402 66 298 10.4 19.1 0.00 0.00 0.00 24 1004.1
20260503223902 66 300 10.4 16.5 0.00 0.00 0.00 23 1004.1
20260503223402 66 282 12.2 18.2 0.00 0.00 0.00 24 1004.2
20260503222902 67 314 13.0 18.2 0.00 0.00 0.00 23 1004.1
20260503222402 69 274 13.0 18.2 0.00 0.00 0.00 20 1004.1
20260503222153 69 286 7.0 17.4 0.00 0.00 0.00 23 1004.1
20260503221401 68 254 12.2 17.4 0.00 0.00 0.00 20 1004.2
20260503220900 69 288 10.4 17.4 0.00 0.00 0.00 21 1004.5
20260503220655 69 321 12.2 17.4 0.00 0.00 0.00 20 1004.2
20260503220153 69 281 12.2 16.5 0.00 0.00 0.00 23 1004.3
20260503215358 69 281 7.8 15.6 0.00 0.00 0.00 22 1004.5
20260503214858 69 300 10.4 17.4 0.00 0.00 0.00 24 1004.6
20260503214359 69 307 10.4 17.4 0.00 0.00 0.00 23 1004.6
20260503213854 69 258 7.8 15.6 0.00 0.00 0.00 26 1004.7
20260503213640 69 309 9.6 19.1 0.00 0.00 0.00 24 1004.7
20260503212854 69 305 14.8 19.1 0.00 0.00 0.00 21 1004.7
20260503212352 69 285 4.3 16.5 0.00 0.00 0.00 23 1004.8
20260503211850 69 278 7.8 16.5 0.00 0.00 0.00 22 1004.8
20260503211348 69 289 13.0 16.5 0.00 0.00 0.00 27 1004.8
20260503211141 69 262 7.8 16.5 0.00 0.00 0.00 21 1004.9
20260503210348 69 319 10.4 16.5 0.00 0.00 0.00 21 1005.0
20260503205847 69 324 11.3 15.6 0.00 0.00 0.00 23 1005.1
20260503205347 68 319 11.3 20.0 0.00 0.00 0.00 19 1005.1
20260503204847 68 321 15.6 20.9 0.00 0.00 0.00 24 1005.3
20260503204632 68 331 12.2 20.9 0.00 0.00 0.00 20 1005.3
20260503204132 69 313 8.7 19.1 0.00 0.00 0.00 22 1005.4
20260503203347 69 309 11.3 19.1 0.00 0.00 0.00 23 1005.4
20260503202846 69 238 6.1 12.2 0.00 0.00 0.00 23 1005.6
20260503202347 68 319 5.2 17.4 0.00 0.00 0.00 19 1005.7
20260503201846 68 0 9.6 20.9 0.00 0.00 0.00 22 1005.7
20260503201345 67 340 14.8 20.9 0.00 0.00 0.00 20 1005.8
20260503200847 68 292 15.6 20.9 0.00 0.00 0.00 24 1005.8
20260503200346 68 305 15.6 20.9 0.00 0.00 0.00 23 1005.8
20260503195845 68 306 9.6 15.6 0.00 0.00 0.00 24 1005.8
20260503195345 69 341 7.0 14.8 0.00 0.00 0.00 24 1006.0
20260503194842 68 265 10.4 15.6 0.00 0.00 0.00 23 1006.1
20260503194342 67 298 9.6 15.6 0.00 0.00 0.00 23 1006.0
20260503193842 67 348 7.8 17.4 0.00 0.00 0.00 24 1006.1
20260503193342 67 358 12.2 17.4 0.00 0.00 0.00 24 1006.1
20260503192843 67 292 10.4 16.5 0.00 0.00 0.00 24 1006.2
20260503192629 66 292 10.4 17.4 0.00 0.00 0.00 22 1006.2
20260503192127 66 327 10.4 19.1 0.00 0.00 0.00 26 1006.4
20260503191342 67 4 13.9 19.1 0.00 0.00 0.00 22 1006.4
20260503190842 65 316 8.7 18.2 0.00 0.00 0.00 26 1006.5
20260503190340 66 345 13.9 18.2 0.00 0.00 0.00 26 1006.5
20260503185839 66 334 10.4 15.6 0.00 0.00 0.00 22 1006.6
20260503185340 66 0 4.3 15.6 0.00 0.00 0.00 21 1006.7
20260503184837 65 302 11.3 20.0 0.00 0.00 0.00 23 1006.9
20260503184337 65 329 13.9 20.0 0.00 0.00 0.00 24 1006.9
20260503183836 65 353 10.4 20.0 0.00 0.00 0.00 26 1007.0
20260503183335 65 329 13.0 20.0 0.00 0.00 0.00 22 1006.9
20260503183123 65 0 12.2 18.2 0.00 0.00 0.00 23 1007.2
20260503182335 65 299 8.7 20.9 0.00 0.00 0.00 30 1007.3
20260503181836 64 326 14.8 20.9 0.00 0.00 0.00 23 1007.4
20260503181337 64 7 11.3 24.3 0.00 0.00 0.00 23 1007.3
20260503180834 64 345 13.9 24.3 0.00 0.00 0.00 28 1007.3
20260503180334 64 347 13.9 25.2 0.00 0.00 0.00 23 1007.6
20260503180121 64 344 17.4 25.2 0.00 0.00 0.00 22 1007.6
20260503175618 64 333 17.4 23.5 0.00 0.00 0.00 23 1007.6
20260503175119 64 0 16.5 23.5 0.00 0.00 0.00 22 1007.5
20260503174332 64 341 16.5 24.3 0.00 0.00 0.00 22 1007.5
20260503173831 62 347 13.9 24.3 0.00 0.00 0.00 19 1007.5
20260503173330 63 338 17.4 23.5 0.00 0.00 0.00 21 1007.5
20260503172830 63 351 16.5 23.5 0.00 0.00 0.00 24 1007.5
20260503172330 64 340 13.9 18.2 0.00 0.00 0.00 20 1007.6
20260503172115 64 0 11.3 18.2 0.00 0.00 0.00 23 1007.6
20260503171328 64 354 13.0 20.0 0.00 0.00 0.00 21 1007.7
20260503170830 63 336 13.0 20.9 0.00 0.00 0.00 21 1007.7
20260503170347 62 353 15.6 20.9 0.00 0.00 0.00 20 1007.7
20260503150828 60 317 12.2 18.2 0.00 0.00 0.00 46 1007.3
20260503150621 60 353 11.3 22.6 0.00 0.00 0.00 47 1007.3
20260503150135 59 0 15.6 22.6 0.00 0.00 0.00 46 1007.4
20260503131305 52 7 12.2 18.2 0.00 0.00 0.00 63 1006.8
20260503130803 52 0 10.4 17.4 0.00 0.00 0.00 63 1006.7
20260503130305 51 351 8.7 15.6 0.00 0.00 0.00 64 1006.7
20260503110803 44 355 9.6 14.8 0.00 0.00 0.00 75 1005.1
20260503110303 43 345 9.6 15.6 0.00 0.00 0.00 79 1005.1
20260503090254 40 41 1.7 2.6 0.00 0.00 0.00 79 1004.9
20260503081249 43 89 1.7 2.6 0.00 0.00 0.00 74 1005.0
20260503080750 42 86 1.7 3.5 0.00 0.00 0.00 74 1005.1
20260503080544 41 85 2.6 3.5 0.00 0.00 0.00 76 1005.1
20260503072749 46 138 1.7 3.5 0.00 0.00 0.00 67 1005.0
20260503072248 46 147 1.7 4.3 0.00 0.00 0.00 67 1005.2
20260503071748 47 147 3.5 5.2 0.00 0.00 0.00 65 1005.1
20260503071534 47 154 3.5 5.2 0.00 0.00 0.00 65 1005.0
20260503070746 47 134 4.3 5.2 0.00 0.00 0.00 65 1005.2
20260503070247 48 124 3.5 5.2 0.00 0.00 0.00 62 1005.2
20260503060242 48 61 6.1 11.3 0.00 0.00 0.00 65 1005.8
20260503054741 50 83 2.6 7.8 0.00 0.00 0.00 61 1005.7
20260503054528 51 173 4.3 8.7 0.00 0.00 0.00 58 1005.6
20260503054028 51 179 6.1 8.7 0.00 0.00 0.00 56 1005.6
20260503053529 51 168 7.0 8.7 0.00 0.00 0.00 56 1005.6
20260503052743 52 169 6.1 8.7 0.00 0.00 0.00 55 1005.7